Time,TemperatureF,DewpointF,PressureIn,WindDirection,WindDirectionDegrees,WindSpeedMPH,WindSpeedGustMPH,Humidity,HourlyPrecipIn,Conditions,Clouds,dailyrainin,SoftwareType,DateUTC
2013-04-04 00:02:00,37.0,10.0,30.31,WNW,300,12.0,16.0,32,0.00,,,-99.99,,2013-04-04 04:02:00,
2013-04-04 00:12:00,37.0,12.0,30.32,NW,310,13.0,17.0,34,0.00,,,-99.99,,2013-04-04 04:12:00,
2013-04-04 00:22:00,37.0,12.0,30.31,WNW,300,12.0,21.0,34,0.00,,,-99.99,,2013-04-04 04:22:00,
2013-04-04 00:32:00,37.0,12.0,30.31,WNW,300,9.0,21.0,34,0.00,,,-99.99,,2013-04-04 04:32:00,
2013-04-04 00:42:00,37.0,12.0,30.30,NW,310,12.0,16.0,34,0.00,,,-99.99,,2013-04-04 04:42:00,
2013-04-04 00:52:00,37.0,12.0,30.29,NW,310,14.0,20.0,34,0.00,,,-99.99,,2013-04-04 04:52:00,
2013-04-04 01:01:00,37.0,12.0,30.29,NW,310,14.0,20.0,34,0.00,,,-99.99,,2013-04-04 05:01:00,
2013-04-04 01:11:00,37.0,14.0,30.29,NNW,330,15.0,21.0,37,0.00,,,-99.99,,2013-04-04 05:11:00,
2013-04-04 01:22:00,37.0,14.0,30.29,North,350,6.0,16.0,37,0.00,,,-99.99,,2013-04-04 05:22:00,
2013-04-04 01:31:00,37.0,14.0,30.29,NW,320,10.0,16.0,37,0.00,,,-99.99,,2013-04-04 05:31:00,
2013-04-04 01:41:00,37.0,14.0,30.29,NW,310,8.0,16.0,37,0.00,,,-99.99,,2013-04-04 05:41:00,
2013-04-04 01:52:00,36.0,14.0,30.31,WNW,300,6.0,-999.0,40,0.00,,,-99.99,,2013-04-04 05:52:00,
2013-04-04 02:02:00,36.0,14.0,30.31,WNW,300,6.0,-999.0,40,0.00,,,-99.99,,2013-04-04 06:02:00,
2013-04-04 02:32:00,36.0,16.0,30.32,WNW,290,6.0,-999.0,43,0.00,,,-99.99,,2013-04-04 06:32:00,
2013-04-04 02:42:00,36.0,16.0,30.32,West,260,3.0,-999.0,43,0.00,,,-99.99,,2013-04-04 06:42:00,
2013-04-04 02:51:00,36.0,16.0,30.32,WSW,250,3.0,-999.0,43,0.00,,,-99.99,,2013-04-04 06:51:00,
2013-04-04 03:01:00,36.0,16.0,30.32,WSW,250,3.0,-999.0,43,0.00,,,-99.99,,2013-04-04 07:01:00,
2013-04-04 03:11:00,36.0,16.0,30.32,WSW,250,3.0,-999.0,43,0.00,,,-99.99,,2013-04-04 07:11:00,
2013-04-04 03:21:00,36.0,16.0,30.33,North,0,0.0,-999.0,43,0.00,,,-99.99,,2013-04-04 07:21:00,
2013-04-04 03:31:00,36.0,16.0,30.34,North,0,0.0,-999.0,43,0.00,,,-99.99,,2013-04-04 07:31:00,
2013-04-04 03:42:00,36.0,16.0,30.34,SW,220,5.0,-999.0,43,0.00,,,-99.99,,2013-04-04 07:42:00,
2013-04-04 03:51:00,36.0,16.0,30.34,WSW,250,5.0,-999.0,43,0.00,,,-99.99,,2013-04-04 07:51:00,
2013-04-04 04:01:00,36.0,16.0,30.34,WSW,250,5.0,-999.0,43,0.00,,,-99.99,,2013-04-04 08:01:00,
2013-04-04 04:31:00,34.0,16.0,30.34,WSW,240,5.0,-999.0,47,0.00,,,-99.99,,2013-04-04 08:31:00,
2013-04-04 04:41:00,34.0,16.0,30.34,North,0,0.0,-999.0,47,0.00,,,-99.99,,2013-04-04 08:41:00,
2013-04-04 04:52:00,34.0,16.0,30.34,WSW,240,3.0,-999.0,47,0.00,,,-99.99,,2013-04-04 08:52:00,
2013-04-04 05:11:00,34.0,16.0,30.34,West,260,3.0,-999.0,47,0.00,,,-99.99,,2013-04-04 09:11:00,
2013-04-04 05:21:00,34.0,18.0,30.35,West,260,6.0,-999.0,51,0.00,,,-99.99,,2013-04-04 09:21:00,
2013-04-04 05:32:00,34.0,18.0,30.35,West,270,8.0,-999.0,51,0.00,,,-99.99,,2013-04-04 09:32:00,
2013-04-04 05:42:00,34.0,18.0,30.36,West,270,8.0,-999.0,51,0.00,,,-99.99,,2013-04-04 09:42:00,
2013-04-04 05:52:00,34.0,18.0,30.36,West,280,7.0,-999.0,51,0.00,,,-99.99,,2013-04-04 09:52:00,
2013-04-04 06:02:00,34.0,18.0,30.36,West,280,7.0,-999.0,51,0.00,,,-99.99,,2013-04-04 10:02:00,
2013-04-04 06:11:00,32.0,18.0,30.37,North,0,0.0,-999.0,54,0.00,,,-99.99,,2013-04-04 10:11:00,
2013-04-04 06:22:00,34.0,18.0,30.37,West,260,6.0,-999.0,51,0.00,,,-99.99,,2013-04-04 10:22:00,
2013-04-04 06:32:00,32.0,18.0,30.38,West,280,8.0,-999.0,54,0.00,,,-99.99,,2013-04-04 10:32:00,
2013-04-04 06:41:00,32.0,18.0,30.37,West,280,7.0,-999.0,54,0.00,,,-99.99,,2013-04-04 10:41:00,
2013-04-04 06:52:00,34.0,18.0,30.39,WSW,250,6.0,-999.0,51,0.00,,,-99.99,,2013-04-04 10:52:00,
2013-04-04 07:02:00,34.0,18.0,30.39,WSW,250,6.0,-999.0,51,0.00,,,-99.99,,2013-04-04 11:02:00,
2013-04-04 07:11:00,34.0,18.0,30.40,SW,230,3.0,-999.0,51,0.00,,,-99.99,,2013-04-04 11:11:00,
2013-04-04 07:21:00,34.0,18.0,30.41,WSW,240,6.0,-999.0,51,0.00,,,-99.99,,2013-04-04 11:21:00,
2013-04-04 07:31:00,34.0,18.0,30.41,West,260,6.0,-999.0,51,0.00,,,-99.99,,2013-04-04 11:31:00,
2013-04-04 07:41:00,36.0,18.0,30.41,WSW,250,5.0,-999.0,47,0.00,,,-99.99,,2013-04-04 11:41:00,
2013-04-04 07:52:00,36.0,18.0,30.40,West,270,5.0,-999.0,47,0.00,,,-99.99,,2013-04-04 11:52:00,
2013-04-04 08:01:00,36.0,18.0,30.40,West,270,5.0,-999.0,47,0.00,,,-99.99,,2013-04-04 12:01:00,
2013-04-04 08:11:00,36.0,18.0,30.40,West,280,8.0,-999.0,47,0.00,,,0.00,,2013-04-04 12:11:00,
2013-04-04 08:21:00,36.0,18.0,30.40,West,270,7.0,-999.0,47,0.00,,,0.00,,2013-04-04 12:21:00,
2013-04-04 08:31:00,36.0,18.0,30.40,WNW,290,7.0,-999.0,47,0.00,,,0.00,,2013-04-04 12:31:00,
2013-04-04 08:42:00,37.0,18.0,30.40,NW,320,6.0,-999.0,44,0.00,,,0.00,,2013-04-04 12:42:00,
2013-04-04 08:51:00,37.0,18.0,30.40,West,280,6.0,-999.0,44,0.00,,,0.00,,2013-04-04 12:51:00,
2013-04-04 09:01:00,37.0,18.0,30.40,West,280,6.0,-999.0,44,0.00,,,0.00,,2013-04-04 13:01:00,
2013-04-04 09:11:00,37.0,18.0,30.39,WNW,290,6.0,-999.0,44,0.00,,,-99.99,,2013-04-04 13:11:00,
2013-04-04 09:21:00,37.0,18.0,30.39,WNW,300,3.0,-999.0,44,0.00,,,-99.99,,2013-04-04 13:21:00,
2013-04-04 09:31:00,39.0,18.0,30.39,West,280,6.0,-999.0,41,0.00,,,-99.99,,2013-04-04 13:31:00,
2013-04-04 09:41:00,39.0,18.0,30.39,WNW,290,5.0,-999.0,41,0.00,,,-99.99,,2013-04-04 13:41:00,
2013-04-04 09:52:00,39.0,18.0,30.39,WSW,240,5.0,-999.0,41,0.00,,,-99.99,,2013-04-04 13:52:00,
2013-04-04 10:02:00,39.0,18.0,30.39,WSW,240,5.0,-999.0,41,0.00,,,-99.99,,2013-04-04 14:02:00,
2013-04-04 10:11:00,39.0,18.0,30.38,WNW,290,3.0,-999.0,41,0.00,,,-99.99,,2013-04-04 14:11:00,
2013-04-04 10:21:00,39.0,18.0,30.38,WSW,250,3.0,-999.0,41,0.00,,,-99.99,,2013-04-04 14:21:00,
2013-04-04 10:31:00,43.0,19.0,30.38,West,270,5.0,-999.0,38,0.00,,,-99.99,,2013-04-04 14:31:00,
2013-04-04 10:41:00,41.0,18.0,30.38,West,260,6.0,-999.0,38,0.00,,,-99.99,,2013-04-04 14:41:00,
2013-04-04 10:51:00,43.0,18.0,30.37,West,280,7.0,-999.0,35,0.00,,,-99.99,,2013-04-04 14:51:00,
2013-04-04 11:01:00,43.0,18.0,30.37,West,280,7.0,-999.0,35,0.00,,,-99.99,,2013-04-04 15:01:00,
2013-04-04 11:21:00,45.0,19.0,30.36,WSW,240,6.0,-999.0,36,0.00,,,-99.99,,2013-04-04 15:21:00,
2013-04-04 11:32:00,45.0,19.0,30.36,WNW,300,3.0,-999.0,36,0.00,,,-99.99,,2013-04-04 15:32:00,
2013-04-04 11:42:00,45.0,19.0,30.36,North,0,0.0,-999.0,36,0.00,,,-99.99,,2013-04-04 15:42:00,
2013-04-04 11:52:00,45.0,19.0,30.34,WSW,240,3.0,-999.0,36,0.00,,,-99.99,,2013-04-04 15:52:00,
2013-04-04 12:02:00,45.0,19.0,30.34,WSW,240,3.0,-999.0,36,0.00,,,-99.99,,2013-04-04 16:02:00,
2013-04-04 12:12:00,46.0,19.0,30.34,West,260,7.0,-999.0,33,0.00,,,-99.99,,2013-04-04 16:12:00,
2013-04-04 12:22:00,46.0,19.0,30.34,West,260,6.0,-999.0,33,0.00,,,-99.99,,2013-04-04 16:22:00,
2013-04-04 12:32:00,46.0,19.0,30.32,WSW,240,5.0,-999.0,33,0.00,,,-99.99,,2013-04-04 16:32:00,
2013-04-04 12:42:00,46.0,19.0,30.32,WSW,250,6.0,-999.0,33,0.00,,,-99.99,,2013-04-04 16:42:00,
2013-04-04 12:52:00,48.0,19.0,30.31,WSW,250,8.0,-999.0,31,0.00,,,-99.99,,2013-04-04 16:52:00,
2013-04-04 13:02:00,48.0,19.0,30.31,WSW,250,8.0,-999.0,31,0.00,,,-99.99,,2013-04-04 17:02:00,
2013-04-04 13:11:00,48.0,19.0,30.30,SSE,150,7.0,-999.0,31,0.00,,,-99.99,,2013-04-04 17:11:00,
2013-04-04 13:22:00,48.0,19.0,30.29,WSW,250,6.0,-999.0,31,0.00,,,-99.99,,2013-04-04 17:22:00,
2013-04-04 13:32:00,50.0,21.0,30.28,North,0,0.0,-999.0,31,0.00,,,-99.99,,2013-04-04 17:32:00,
2013-04-04 13:42:00,50.0,19.0,30.27,WSW,240,6.0,-999.0,29,0.00,,,-99.99,,2013-04-04 17:42:00,
2013-04-04 13:51:00,50.0,21.0,30.27,WSW,240,5.0,-999.0,31,0.00,,,-99.99,,2013-04-04 17:51:00,
2013-04-04 14:01:00,50.0,21.0,30.27,WSW,240,5.0,-999.0,31,0.00,,,-99.99,,2013-04-04 18:01:00,
2013-04-04 14:11:00,52.0,21.0,30.27,SW,220,5.0,-999.0,29,0.00,,,-99.99,,2013-04-04 18:11:00,
2013-04-04 14:51:00,54.0,21.0,30.23,SW,230,8.0,-999.0,27,0.00,,,-99.99,,2013-04-04 18:51:00,
2013-04-04 15:01:00,54.0,21.0,30.23,SW,230,8.0,-999.0,27,0.00,,,-99.99,,2013-04-04 19:01:00,
2013-04-04 15:11:00,54.0,21.0,30.23,South,170,8.0,-999.0,27,0.00,,,-99.99,,2013-04-04 19:11:00,
2013-04-04 15:21:00,54.0,25.0,30.22,SE,130,10.0,-999.0,32,0.00,,,-99.99,,2013-04-04 19:21:00,
2013-04-04 15:31:00,52.0,27.0,30.21,ESE,120,12.0,18.0,37,0.00,,,-99.99,,2013-04-04 19:31:00,
2013-04-04 15:41:00,52.0,25.0,30.21,ESE,120,14.0,-999.0,34,0.00,,,-99.99,,2013-04-04 19:41:00,
2013-04-04 15:51:00,52.0,27.0,30.20,ESE,120,9.0,17.0,37,0.00,,,-99.99,,2013-04-04 19:51:00,
2013-04-04 16:01:00,52.0,27.0,30.20,ESE,120,9.0,17.0,37,0.00,,,-99.99,,2013-04-04 20:01:00,
2013-04-04 16:11:00,52.0,27.0,30.19,SE,130,10.0,-999.0,37,0.00,,,-99.99,,2013-04-04 20:11:00,
2013-04-04 16:21:00,52.0,27.0,30.19,SE,130,10.0,-999.0,37,0.00,,,-99.99,,2013-04-04 20:21:00,
2013-04-04 16:31:00,52.0,27.0,30.19,ESE,120,10.0,-999.0,37,0.00,,,-99.99,,2013-04-04 20:31:00,
2013-04-04 16:41:00,52.0,27.0,30.18,SE,130,12.0,-999.0,37,0.00,,,-99.99,,2013-04-04 20:41:00,
2013-04-04 16:52:00,52.0,27.0,30.18,SE,130,10.0,-999.0,37,0.00,,,-99.99,,2013-04-04 20:52:00,
2013-04-04 17:01:00,52.0,27.0,30.18,SE,130,10.0,-999.0,37,0.00,,,-99.99,,2013-04-04 21:01:00,
2013-04-04 17:11:00,52.0,27.0,30.18,SE,130,9.0,-999.0,37,0.00,,,-99.99,,2013-04-04 21:11:00,
2013-04-04 17:21:00,52.0,28.0,30.17,ESE,120,10.0,-999.0,40,0.00,,,-99.99,,2013-04-04 21:21:00,
2013-04-04 17:32:00,50.0,28.0,30.17,ESE,120,12.0,-999.0,43,0.00,,,-99.99,,2013-04-04 21:32:00,
2013-04-04 17:42:00,50.0,28.0,30.17,SE,130,10.0,-999.0,43,0.00,,,-99.99,,2013-04-04 21:42:00,
2013-04-04 17:52:00,52.0,28.0,30.16,ESE,120,7.0,-999.0,40,0.00,,,-99.99,,2013-04-04 21:52:00,
2013-04-04 18:02:00,52.0,28.0,30.16,ESE,120,7.0,-999.0,40,0.00,,,-99.99,,2013-04-04 22:02:00,
2013-04-04 18:12:00,52.0,28.0,30.16,SE,130,9.0,-999.0,40,0.00,,,-99.99,,2013-04-04 22:12:00,
2013-04-04 18:22:00,52.0,28.0,30.17,SE,140,7.0,-999.0,40,0.00,,,-99.99,,2013-04-04 22:22:00,
2013-04-04 18:32:00,52.0,28.0,30.17,SE,130,7.0,-999.0,40,0.00,,,-99.99,,2013-04-04 22:32:00,
2013-04-04 18:42:00,52.0,30.0,30.17,SE,140,6.0,-999.0,43,0.00,,,-99.99,,2013-04-04 22:42:00,
2013-04-04 18:53:00,52.0,30.0,30.17,SSE,150,6.0,-999.0,43,0.00,,,-99.99,,2013-04-04 22:53:00,
2013-04-04 19:03:00,52.0,30.0,30.17,SSE,150,6.0,-999.0,43,0.00,,,-99.99,,2013-04-04 23:03:00,
2013-04-04 19:21:00,50.0,27.0,30.17,SSE,160,8.0,-999.0,39,0.00,,,-99.99,,2013-04-04 23:21:00,
2013-04-04 19:31:00,50.0,28.0,30.16,SSE,150,8.0,-999.0,43,0.00,,,-99.99,,2013-04-04 23:31:00,
2013-04-04 19:42:00,50.0,28.0,30.16,SSE,160,6.0,-999.0,43,0.00,,,-99.99,,2013-04-04 23:42:00,
2013-04-04 19:52:00,50.0,28.0,30.15,SSE,150,5.0,-999.0,43,0.00,,,-99.99,,2013-04-04 23:52:00,
2013-04-04 20:01:00,50.0,28.0,30.15,SSE,150,5.0,-999.0,43,0.00,,,-99.99,,2013-04-05 00:01:00,
2013-04-04 20:21:00,52.0,21.0,30.14,SW,230,5.0,-999.0,29,0.00,,,-99.99,,2013-04-05 00:21:00,
2013-04-04 20:32:00,52.0,21.0,30.14,SSW,210,3.0,-999.0,29,0.00,,,-99.99,,2013-04-05 00:32:00,
2013-04-04 20:41:00,50.0,23.0,30.14,SSW,210,6.0,-999.0,34,0.00,,,-99.99,,2013-04-05 00:41:00,
2013-04-04 20:51:00,50.0,23.0,30.14,South,180,6.0,-999.0,34,0.00,,,-99.99,,2013-04-05 00:51:00,
2013-04-04 21:02:00,50.0,23.0,30.14,South,180,6.0,-999.0,34,0.00,,,-99.99,,2013-04-05 01:02:00,
2013-04-04 21:11:00,48.0,21.0,30.14,South,190,5.0,-999.0,34,0.00,,,-99.99,,2013-04-05 01:11:00,
2013-04-04 21:21:00,48.0,19.0,30.14,SSW,200,3.0,-999.0,31,0.00,,,-99.99,,2013-04-05 01:21:00,
2013-04-04 21:31:00,48.0,19.0,30.14,SSW,210,5.0,-999.0,31,0.00,,,-99.99,,2013-04-05 01:31:00,
2013-04-04 21:41:00,48.0,16.0,30.14,SSW,210,3.0,-999.0,27,0.00,,,-99.99,,2013-04-05 01:41:00,
2013-04-04 21:52:00,48.0,18.0,30.14,SSW,200,7.0,-999.0,29,0.00,,,-99.99,,2013-04-05 01:52:00,
2013-04-04 22:01:00,48.0,18.0,30.14,SSW,200,7.0,-999.0,29,0.00,,,-99.99,,2013-04-05 02:01:00,
2013-04-04 22:31:00,46.0,25.0,30.14,South,180,7.0,-999.0,42,0.00,,,-99.99,,2013-04-05 02:31:00,
2013-04-04 22:41:00,45.0,25.0,30.14,South,180,5.0,-999.0,45,0.00,,,-99.99,,2013-04-05 02:41:00,
2013-04-04 22:51:00,45.0,25.0,30.14,SSW,210,5.0,-999.0,45,0.00,,,-99.99,,2013-04-05 02:51:00,
2013-04-04 23:01:00,45.0,25.0,30.14,SSW,210,5.0,-999.0,45,0.00,,,-99.99,,2013-04-05 03:01:00,
2013-04-04 23:21:00,45.0,25.0,30.12,SSW,200,5.0,-999.0,45,0.00,,,-99.99,,2013-04-05 03:21:00,
2013-04-04 23:32:00,45.0,25.0,30.11,South,190,3.0,-999.0,45,0.00,,,-99.99,,2013-04-05 03:32:00,
2013-04-04 23:42:00,45.0,23.0,30.11,South,190,3.0,-999.0,42,0.00,,,-99.99,,2013-04-05 03:42:00,
2013-04-04 23:53:00,45.0,23.0,30.10,South,190,3.0,-999.0,42,0.00,,,-99.99,,2013-04-05 03:53:00,